,,Stat5,,Stat1,,Stat2,,Stat3,,Stat4,,Wind1,,Wind1,
time,status,PA1M_AVG,status,PR1M_SUM,status,RH1M_AVG,status,SR1M_AVG,status,TA1M_AVG,status,W1dAve1m,status,W1sAve1m,
2000-12-28, 00:00:00,VALID,917.494,VALID,0,VALID,97.6287,VALID,0.0339617,VALID,21.0909,VALID,106,VALID,0.360853,
2000-12-28, 00:01:00,VALID,917.524,VALID,0,VALID,97.6516,VALID,0.0169808,VALID,21.1071,VALID,95,VALID,0.492599,
2000-12-28, 00:02:00,VALID,917.526,VALID,0,VALID,97.5893,VALID,0.0339617,VALID,21.1038,VALID,95,VALID,0.398438,
2000-12-28, 00:03:00,VALID,917.555,VALID,0,VALID,97.6236,VALID,0.0169808,VALID,21.1098,VALID,99,VALID,0.56871,
2000-12-28, 00:04:00,VALID,917.574,VALID,0,VALID,97.5956,VALID,0.0339617,VALID,21.1165,VALID,113,VALID,0.525699,
2000-12-28, 00:05:00,VALID,917.574,VALID,0,VALID,97.5219,VALID,0,VALID,21.1141,VALID,103,VALID,0.389358,
2000-12-28, 00:06:00,VALID,917.561,VALID,0,VALID,97.4138,VALID,0.0169808,VALID,21.0944,VALID,99,VALID,0.299352,
2000-12-28, 00:07:00,VALID,917.558,VALID,0,VALID,97.1633,VALID,0.0509425,VALID,21.0583,VALID,98,VALID,0.510352,
2000-12-28, 00:08:00,VALID,917.531,VALID,0,VALID,97.1277,VALID,0.0169808,VALID,21.0521,VALID,107,VALID,0.348357,
2000-12-28, 00:09:01,VALID,917.513,VALID,0,VALID,97.1531,VALID,0.0169808,VALID,21.0618,VALID,108,VALID,0,
2000-12-28, 00:10:00,VALID,917.494,VALID,0,VALID,96.984,VALID,0.0169808,VALID,21.0521,VALID,105,VALID,0,
2000-12-28, 00:11:01,VALID,917.493,VALID,0,VALID,96.9522,VALID,0.0169808,VALID,21.0389,VALID,102,VALID,0,
2000-12-28, 00:12:01,VALID,917.475,VALID,0,VALID,96.9344,VALID,0,VALID,21.0524,VALID,102,VALID,0,
2000-12-28, 00:13:01,VALID,917.462,VALID,0,VALID,96.8149,VALID,0.0169808,VALID,21.0298,VALID,102,VALID,0,
2000-12-28, 00:14:00,VALID,917.458,VALID,0,VALID,96.7386,VALID,0,VALID,21.0131,VALID,102,VALID,0,
2000-12-28, 00:15:00,VALID,917.439,VALID,0,VALID,96.7755,VALID,0,VALID,21.0198,VALID,103,VALID,0,
2000-12-28, 00:16:00,VALID,917.435,VALID,0,VALID,96.8085,VALID,0.0679233,VALID,21.0325,VALID,103,VALID,0,
2000-12-28, 00:17:01,VALID,917.429,VALID,0,VALID,96.7208,VALID,0.0339617,VALID,21.0422,VALID,104,VALID,0,
2000-12-28, 00:18:00,VALID,917.414,VALID,0,VALID,96.53,VALID,0.0509425,VALID,21.0096,VALID,104,VALID,0,
2000-12-28, 00:19:00,VALID,917.397,VALID,0,VALID,96.5237,VALID,0.0339617,VALID,20.984,VALID,104,VALID,0,
2000-12-28, 00:20:01,VALID,917.382,VALID,0,VALID,96.5593,VALID,0.0169808,VALID,20.9681,VALID,93,VALID,0,
2000-12-28, 00:21:00,VALID,917.38,VALID,0,VALID,96.525,VALID,0.0169808,VALID,20.9519,VALID,83,VALID,0,
2000-12-28, 00:22:00,VALID,917.388,VALID,0,VALID,96.5733,VALID,0.0339617,VALID,20.9581,VALID,83,VALID,0,
2000-12-28, 00:23:00,VALID,917.386,VALID,0,VALID,96.5835,VALID,0.0169808,VALID,20.9546,VALID,83,VALID,0,
2000-12-28, 00:24:00,VALID,917.384,VALID,0,VALID,96.6572,VALID,0.0169808,VALID,20.9651,VALID,91,VALID,0,
2000-12-28, 00:25:00,VALID,917.396,VALID,0,VALID,96.7526,VALID,0,VALID,20.9713,VALID,96,VALID,0,
2000-12-28, 00:26:00,VALID,917.395,VALID,0,VALID,96.7653,VALID,0.0169808,VALID,20.9678,VALID,96,VALID,0,
2000-12-28, 00:27:00,VALID,917.382,VALID,0,VALID,96.75,VALID,0.0169808,VALID,20.9746,VALID,102,VALID,0,
2000-12-28, 00:28:00,VALID,917.372,VALID,0,VALID,96.8301,VALID,0,VALID,20.9713,VALID,112,VALID,0,
2000-12-28, 00:29:01,VALID,917.371,VALID,0,VALID,96.8899,VALID,0.0339617,VALID,20.9678,VALID,112,VALID,0,
2000-12-28, 00:30:01,VALID,917.36,VALID,0,VALID,96.923,VALID,0,VALID,20.9912,VALID,112,VALID,0,
2000-12-28, 00:31:01,VALID,917.348,VALID,0,VALID,96.9738,VALID,0,VALID,20.991,VALID,105,VALID,0,
2000-12-28, 00:32:01,VALID,917.332,VALID,0,VALID,96.9764,VALID,0,VALID,20.984,VALID,103,VALID,0,
2000-12-28, 00:33:01,VALID,917.319,VALID,0,VALID,96.9573,VALID,0,VALID,20.9619,VALID,99,VALID,0,
2000-12-28, 00:34:00,VALID,917.305,VALID,0,VALID,97.012,VALID,0.0339617,VALID,20.9358,VALID,89,VALID,0,
2000-12-28, 00:35:00,VALID,917.284,VALID,0,VALID,97.0145,VALID,-0.0339617,VALID,20.9008,VALID,80,VALID,0,
2000-12-28, 00:36:01,VALID,917.251,VALID,0,VALID,97.115,VALID,-0.0849042,VALID,20.873,VALID,78,VALID,0.386819,
2000-12-28, 00:37:01,VALID,917.228,VALID,0,VALID,97.1722,VALID,-0.0339617,VALID,20.8374,VALID,74,VALID,0.42793,
2000-12-28, 00:38:01,VALID,917.2,VALID,0,VALID,97.3019,VALID,-0.0339617,VALID,20.8145,VALID,55,VALID,0.400082,
2000-12-28, 00:39:01,VALID,917.168,VALID,0,VALID,97.3973,VALID,-0.0679233,VALID,20.7892,VALID,67,VALID,0.525127,
2000-12-28, 00:40:01,VALID,917.158,VALID,0,VALID,97.4927,VALID,-0.0339617,VALID,20.7723,VALID,90,VALID,0.497997,
2000-12-28, 00:41:01,VALID,917.145,VALID,0,VALID,97.5664,VALID,-0.0679233,VALID,20.7693,VALID,64,VALID,0.448918,
2000-12-28, 00:42:01,VALID,917.115,VALID,0,VALID,97.6427,VALID,-0.0509425,VALID,20.7467,VALID,89,VALID,0.48758,
2000-12-28, 00:43:01,VALID,917.092,VALID,0,VALID,97.6859,VALID,-0.0339617,VALID,20.7275,VALID,56,VALID,0.702455,
2000-12-28, 00:44:00,VALID,917.084,VALID,0,VALID,97.7533,VALID,-0.0849042,VALID,20.7049,VALID,71,VALID,0.479297,
2000-12-28, 00:45:01,VALID,917.068,VALID,0,VALID,97.8525,VALID,-0.0509425,VALID,20.7049,VALID,90,VALID,0.6148,
2000-12-28, 00:46:01,VALID,917.075,VALID,0,VALID,97.8843,VALID,-0.0509425,VALID,20.6987,VALID,80,VALID,0.498698,
2000-12-28, 00:47:01,VALID,917.068,VALID,0,VALID,97.9339,VALID,-0.0849042,VALID,20.6758,VALID,72,VALID,0.458826,
2000-12-28, 00:48:01,VALID,917.06,VALID,0,VALID,97.9733,VALID,-0.0509425,VALID,20.6664,VALID,68,VALID,0.196752,
2000-12-28, 00:49:01,VALID,917.057,VALID,0,VALID,98.014,VALID,-0.0679233,VALID,20.653,VALID,22,VALID,0.311233,
2000-12-28, 00:50:01,VALID,917.026,VALID,0,VALID,98.0903,VALID,-0.0679233,VALID,20.6632,VALID,81,VALID,0.230152,
2000-12-28, 00:51:01,VALID,917.001,VALID,0,VALID,98.1132,VALID,-0.101885,VALID,20.6467,VALID,78,VALID,0.0526786,
2000-12-28, 00:52:01,VALID,916.975,VALID,0,VALID,98.1348,VALID,-0.0679233,VALID,20.64,VALID,73,VALID,0.00164474,
2000-12-28, 00:53:01,VALID,916.945,VALID,0,VALID,98.178,VALID,-0.0849042,VALID,20.6562,VALID,83,VALID,0.00802365,
2000-12-28, 00:54:01,VALID,916.917,VALID,0,VALID,98.2149,VALID,-0.0679233,VALID,20.6664,VALID,99,VALID,0.14234,
2000-12-28, 00:55:01,VALID,916.896,VALID,0,VALID,98.2302,VALID,-0.0339617,VALID,20.6497,VALID,100,VALID,0.554102,
2000-12-28, 00:56:01,VALID,916.861,VALID,0,VALID,98.2594,VALID,-0.0679233,VALID,20.6532,VALID,103,VALID,0.19778,
2000-12-28, 00:57:01,VALID,916.844,VALID,0,VALID,98.2887,VALID,-0.0339617,VALID,20.6597,VALID,114,VALID,0,
2000-12-28, 00:58:01,VALID,916.818,VALID,0,VALID,98.3077,VALID,-0.0679233,VALID,20.6537,VALID,121,VALID,0,
2000-12-28, 00:59:01,VALID,916.766,VALID,0,VALID,98.262,VALID,-0.0849042,VALID,20.6341,VALID,154,VALID,0,
2000-12-28, 01:00:01,VALID,916.739,VALID,0,VALID,98.2187,VALID,-0.0509425,VALID,20.608,VALID,179,VALID,0,
2000-12-28, 01:01:01,VALID,916.725,VALID,0,VALID,98.2213,VALID,-0.0509425,VALID,20.5891,VALID,179,VALID,0,
2000-12-28, 01:02:01,VALID,916.709,VALID,0,VALID,98.2175,VALID,-0.0509425,VALID,20.563,VALID,179,VALID,0,
2000-12-28, 01:03:01,VALID,916.706,VALID,0,VALID,98.2124,VALID,-0.0339617,VALID,20.5398,VALID,179,VALID,0,
2000-12-28, 01:04:01,VALID,916.709,VALID,0,VALID,98.2404,VALID,-0.0509425,VALID,20.5113,VALID,188,VALID,0.275841,
2000-12-28, 01:05:01,VALID,916.703,VALID,0,VALID,98.2747,VALID,-0.0849042,VALID,20.4854,VALID,202,VALID,0.894326,
2000-12-28, 01:06:01,VALID,916.689,VALID,0,VALID,98.3446,VALID,-0.0849042,VALID,20.476,VALID,211,VALID,1.07648,
2000-12-28, 01:07:01,VALID,916.661,VALID,0,VALID,98.4527,VALID,-0.0849042,VALID,20.4824,VALID,218,VALID,1.20186,
2000-12-28, 01:08:00,VALID,916.627,VALID,0,VALID,98.4998,VALID,-0.0679233,VALID,20.4956,VALID,226,VALID,1.43555,
2000-12-28, 01:09:00,VALID,916.613,VALID,0,VALID,98.5481,VALID,-0.0679233,VALID,20.4956,VALID,232,VALID,1.14865,
2000-12-28, 01:10:00,VALID,916.608,VALID,0,VALID,98.5888,VALID,-0.0679233,VALID,20.4757,VALID,223,VALID,0.903577,
2000-12-28, 01:11:00,VALID,916.59,VALID,0,VALID,98.6358,VALID,-0.101885,VALID,20.4824,VALID,218,VALID,0.341546,
2000-12-28, 01:12:00,VALID,916.597,VALID,0,VALID,98.6727,VALID,-0.0849042,VALID,20.4897,VALID,228,VALID,0.144231,
2000-12-28, 01:13:00,VALID,916.585,VALID,0,VALID,98.6765,VALID,-0.101885,VALID,20.4792,VALID,199,VALID,0.23522,
2000-12-28, 01:14:00,VALID,916.603,VALID,0,VALID,98.7007,VALID,-0.101885,VALID,20.4693,VALID,196,VALID,0.00246711,
2000-12-28, 01:15:00,VALID,916.576,VALID,0,VALID,98.721,VALID,-0.101885,VALID,20.47,VALID,206,VALID,0.169872,
2000-12-28, 01:16:00,VALID,916.593,VALID,0,VALID,98.7325,VALID,-0.0849042,VALID,20.4596,VALID,225,VALID,0.403245,
2000-12-28, 01:17:00,VALID,916.603,VALID,0,VALID,98.7681,VALID,-0.101885,VALID,20.47,VALID,225,VALID,0.231027,
2000-12-28, 01:18:00,VALID,916.603,VALID,0,VALID,98.7821,VALID,-0.0849042,VALID,20.4733,VALID,225,VALID,0.0999178,
2000-12-28, 01:19:00,VALID,916.61,VALID,0,VALID,98.8049,VALID,-0.0339617,VALID,20.4655,VALID,225,VALID,0.238809,
2000-12-28, 01:20:00,VALID,916.611,VALID,0,VALID,98.8126,VALID,-0.0169808,VALID,20.4854,VALID,225,VALID,0.117622,
2000-12-28, 01:21:00,VALID,916.615,VALID,0,VALID,98.838,VALID,0.0339617,VALID,20.4841,VALID,225,VALID,0,
2000-12-28, 01:22:00,VALID,916.609,VALID,0,VALID,98.8558,VALID,0,VALID,20.4914,VALID,241,VALID,0.250411,
2000-12-28, 01:23:00,VALID,916.624,VALID,0,VALID,98.8609,VALID,-0.0169808,VALID,20.5011,VALID,242,VALID,0.754223,
2000-12-28, 01:24:00,VALID,916.626,VALID,0,VALID,98.8571,VALID,-0.0169808,VALID,20.4981,VALID,231,VALID,0.853571,
2000-12-28, 01:25:00,VALID,916.646,VALID,0,VALID,98.8571,VALID,0,VALID,20.5016,VALID,226,VALID,0.996875,
2000-12-28, 01:26:00,VALID,916.654,VALID,0,VALID,98.8711,VALID,-0.0339617,VALID,20.4949,VALID,226,VALID,1.0222,
2000-12-28, 01:27:00,VALID,916.659,VALID,0,VALID,98.8978,VALID,0,VALID,20.5046,VALID,235,VALID,0.655248,
2000-12-28, 01:28:00,VALID,916.682,VALID,0,VALID,98.9105,VALID,-0.0169808,VALID,20.5108,VALID,226,VALID,0.581641,
2000-12-28, 01:29:00,VALID,916.693,VALID,0,VALID,98.9346,VALID,0,VALID,20.5239,VALID,209,VALID,0.0476974,
2000-12-28, 01:30:00,VALID,916.702,VALID,0,VALID,98.9423,VALID,0,VALID,20.5336,VALID,209,VALID,0.162373,
2000-12-28, 01:31:00,VALID,916.71,VALID,0,VALID,98.9614,VALID,0,VALID,20.5431,VALID,204,VALID,0.110978,
2000-12-28, 01:32:00,VALID,916.707,VALID,0,VALID,98.955,VALID,0,VALID,20.556,VALID,234,VALID,0,
2000-12-28, 01:33:00,VALID,916.703,VALID,0,VALID,98.9525,VALID,-0.0169808,VALID,20.5592,VALID,236,VALID,0,
2000-12-28, 01:34:00,VALID,916.705,VALID,0,VALID,98.9397,VALID,0.0169808,VALID,20.5495,VALID,236,VALID,0.00848214,
2000-12-28, 01:35:00,VALID,916.684,VALID,0,VALID,98.9423,VALID,0,VALID,20.5595,VALID,210,VALID,0.425977,
2000-12-28, 01:36:00,VALID,916.661,VALID,0,VALID,98.9334,VALID,0,VALID,20.5396,VALID,208,VALID,0.394965,
2000-12-28, 01:37:00,VALID,916.646,VALID,0,VALID,98.9219,VALID,-0.0169808,VALID,20.5401,VALID,203,VALID,0.553819,
2000-12-28, 01:38:00,VALID,916.621,VALID,0,VALID,98.913,VALID,0,VALID,20.5272,VALID,194,VALID,0.332137,
2000-12-28, 01:39:00,VALID,916.609,VALID,0,VALID,98.9385,VALID,0,VALID,20.5272,VALID,154,VALID,0.110403,
2000-12-28, 01:40:00,VALID,916.595,VALID,0,VALID,98.9461,VALID,0,VALID,20.5269,VALID,149,VALID,0,
2000-12-28, 01:41:00,VALID,916.566,VALID,0,VALID,98.9423,VALID,-0.0169808,VALID,20.5334,VALID,138,VALID,0,
2000-12-28, 01:42:00,VALID,916.556,VALID,0,VALID,98.9614,VALID,-0.0339617,VALID,20.5592,VALID,101,VALID,0.467411,
2000-12-28, 01:43:00,VALID,916.543,VALID,0,VALID,98.9601,VALID,0,VALID,20.566,VALID,104,VALID,0.598479,
2000-12-28, 01:44:00,VALID,916.537,VALID,0,VALID,98.9436,VALID,0,VALID,20.5595,VALID,107,VALID,0.581292,
2000-12-28, 01:45:00,VALID,916.526,VALID,0,VALID,98.941,VALID,0,VALID,20.5622,VALID,108,VALID,0.522485,
2000-12-28, 01:46:00,VALID,916.522,VALID,0,VALID,98.9232,VALID,-0.0169808,VALID,20.5622,VALID,109,VALID,0.390039,
2000-12-28, 01:47:00,VALID,916.516,VALID,0,VALID,98.9207,VALID,-0.0169808,VALID,20.5657,VALID,112,VALID,0.205592,
2000-12-28, 01:48:00,VALID,916.499,VALID,0,VALID,98.9194,VALID,-0.0169808,VALID,20.5886,VALID,112,VALID,0.32977,
2000-12-28, 01:49:00,VALID,916.488,VALID,0,VALID,98.8952,VALID,0,VALID,20.5592,VALID,112,VALID,0.262109,
2000-12-28, 01:50:00,VALID,916.468,VALID,0,VALID,98.8685,VALID,-0.0169808,VALID,20.559,VALID,112,VALID,0.141426,
2000-12-28, 01:51:00,VALID,916.443,VALID,0,VALID,98.8634,VALID,-0.0679233,VALID,20.5525,VALID,115,VALID,0.389062,
2000-12-28, 01:52:00,VALID,916.437,VALID,0,VALID,98.8456,VALID,-0.0339617,VALID,20.5428,VALID,122,VALID,0.392969,
2000-12-28, 01:53:00,VALID,916.412,VALID,0,VALID,98.8494,VALID,0,VALID,20.5463,VALID,121,VALID,0.0273438,
2000-12-28, 01:54:00,VALID,916.385,VALID,0,VALID,98.8355,VALID,-0.0339617,VALID,20.5498,VALID,121,VALID,0,
2000-12-28, 01:55:00,VALID,916.363,VALID,0,VALID,98.8291,VALID,-0.0339617,VALID,20.553,VALID,121,VALID,0,
2000-12-28, 01:56:00,VALID,916.329,VALID,0,VALID,98.8215,VALID,0,VALID,20.5495,VALID,122,VALID,0,
2000-12-28, 01:57:00,VALID,916.307,VALID,0,VALID,98.8227,VALID,-0.0169808,VALID,20.566,VALID,121,VALID,0,
2000-12-28, 01:58:00,VALID,916.279,VALID,0,VALID,98.7999,VALID,0,VALID,20.553,VALID,121,VALID,0,
2000-12-28, 01:59:00,VALID,916.259,VALID,0,VALID,98.7515,VALID,-0.0339617,VALID,20.5307,VALID,121,VALID,0,
2000-12-28, 02:00:00,VALID,916.242,VALID,0,VALID,98.735,VALID,0,VALID,20.5239,VALID,121,VALID,0,
2000-12-28, 02:01:00,VALID,916.216,VALID,0,VALID,98.7287,VALID,-0.0339617,VALID,20.5205,VALID,121,VALID,0,
2000-12-28, 02:02:00,VALID,916.198,VALID,0,VALID,98.7426,VALID,-0.0339617,VALID,20.5205,VALID,121,VALID,0,
2000-12-28, 02:03:00,VALID,916.171,VALID,0,VALID,98.7172,VALID,-0.0169808,VALID,20.5172,VALID,121,VALID,0,
2000-12-28, 02:04:00,VALID,916.163,VALID,0,VALID,98.6574,VALID,-0.0169808,VALID,20.4887,VALID,117,VALID,0,
2000-12-28, 02:05:00,VALID,916.164,VALID,0,VALID,98.604,VALID,-0.0339617,VALID,20.4364,VALID,110,VALID,0,
2000-12-28, 02:06:00,VALID,916.15,VALID,0,VALID,98.6129,VALID,-0.0169808,VALID,20.4176,VALID,97,VALID,0,
2000-12-28, 02:07:00,VALID,916.158,VALID,0,VALID,98.6613,VALID,0,VALID,20.4108,VALID,97,VALID,0,
2000-12-28, 02:08:00,VALID,916.153,VALID,0,VALID,98.6752,VALID,-0.0339617,VALID,20.3949,VALID,97,VALID,0,
2000-12-28, 02:09:00,VALID,916.156,VALID,0,VALID,98.6854,VALID,-0.0169808,VALID,20.4044,VALID,94,VALID,0,
2000-12-28, 02:10:00,VALID,916.156,VALID,0,VALID,98.7159,VALID,0,VALID,20.4046,VALID,71,VALID,0,
2000-12-28, 02:11:00,VALID,916.164,VALID,0,VALID,98.7592,VALID,-0.0169808,VALID,20.4106,VALID,68,VALID,0,
2000-12-28, 02:12:00,VALID,916.178,VALID,0,VALID,98.7617,VALID,-0.0339617,VALID,20.4205,VALID,68,VALID,0,
2000-12-28, 02:13:00,VALID,916.166,VALID,0,VALID,98.7719,VALID,0,VALID,20.4138,VALID,68,VALID,0,
2000-12-28, 02:14:00,VALID,916.171,VALID,0,VALID,98.7465,VALID,0,VALID,20.4173,VALID,68,VALID,0,
2000-12-28, 02:15:00,VALID,916.161,VALID,0,VALID,98.7477,VALID,-0.0169808,VALID,20.4009,VALID,86,VALID,0,
2000-12-28, 02:16:00,VALID,916.146,VALID,0,VALID,98.7299,VALID,0,VALID,20.3947,VALID,146,VALID,0.0636161,
2000-12-28, 02:17:00,VALID,916.15,VALID,0,VALID,98.7363,VALID,0,VALID,20.385,VALID,167,VALID,0.547286,
2000-12-28, 02:18:00,VALID,916.145,VALID,0,VALID,98.7401,VALID,-0.0169808,VALID,20.382,VALID,167,VALID,0.613381,
2000-12-28, 02:19:00,VALID,916.141,VALID,0,VALID,98.7414,VALID,0,VALID,20.3559,VALID,170,VALID,0.632617,
2000-12-28, 02:20:00,VALID,916.149,VALID,0,VALID,98.7503,VALID,-0.0339617,VALID,20.3432,VALID,169,VALID,0.577303,
2000-12-28, 02:21:00,VALID,916.147,VALID,0,VALID,98.7643,VALID,-0.0169808,VALID,20.3368,VALID,179,VALID,0.613598,
2000-12-28, 02:22:00,VALID,916.152,VALID,0,VALID,98.8049,VALID,0,VALID,20.3333,VALID,183,VALID,0.768229,
2000-12-28, 02:23:00,VALID,916.164,VALID,0,VALID,98.8329,VALID,-0.0339617,VALID,20.3198,VALID,196,VALID,0.59375,
2000-12-28, 02:24:00,VALID,916.167,VALID,0,VALID,98.8622,VALID,-0.0509425,VALID,20.3365,VALID,212,VALID,0.687901,
2000-12-28, 02:25:00,VALID,916.169,VALID,0,VALID,98.8965,VALID,0,VALID,20.3532,VALID,219,VALID,0.555804,
2000-12-28, 02:26:00,VALID,916.187,VALID,0,VALID,98.9156,VALID,-0.0169808,VALID,20.3562,VALID,230,VALID,0.571484,
2000-12-28, 02:27:00,VALID,916.187,VALID,0,VALID,98.9321,VALID,0,VALID,20.3688,VALID,226,VALID,0.661675,
2000-12-28, 02:28:00,VALID,916.18,VALID,0,VALID,98.9397,VALID,-0.0169808,VALID,20.3653,VALID,231,VALID,0.679036,
2000-12-28, 02:29:00,VALID,916.176,VALID,0,VALID,98.9499,VALID,-0.0169808,VALID,20.3721,VALID,216,VALID,0.738387,
2000-12-28, 02:30:00,VALID,916.168,VALID,0,VALID,98.9779,VALID,0,VALID,20.378,VALID,223,VALID,0.572985,
2000-12-28, 02:31:00,VALID,916.164,VALID,0,VALID,98.9753,VALID,0,VALID,20.3979,VALID,211,VALID,0.551309,
2000-12-28, 02:32:00,VALID,916.148,VALID,0,VALID,98.9652,VALID,-0.0169808,VALID,20.3979,VALID,210,VALID,0.52386,
2000-12-28, 02:33:00,VALID,916.122,VALID,0,VALID,98.9741,VALID,0,VALID,20.388,VALID,210,VALID,0.259375,
2000-12-28, 02:34:00,VALID,916.112,VALID,0,VALID,98.9766,VALID,0,VALID,20.3942,VALID,209,VALID,0.296258,
2000-12-28, 02:35:00,VALID,916.074,VALID,0,VALID,98.9792,VALID,0,VALID,20.3842,VALID,219,VALID,0.418708,
2000-12-28, 02:36:00,VALID,916.038,VALID,0,VALID,98.969,VALID,0,VALID,20.3944,VALID,221,VALID,0.547066,
2000-12-28, 02:37:00,VALID,916.018,VALID,0,VALID,98.9715,VALID,0,VALID,20.385,VALID,217,VALID,0.427539,
2000-12-28, 02:38:00,VALID,915.981,VALID,0,VALID,98.9728,VALID,0,VALID,20.3815,VALID,216,VALID,0.370888,
2000-12-28, 02:39:00,VALID,915.953,VALID,0,VALID,98.9715,VALID,-0.0169808,VALID,20.3686,VALID,209,VALID,0.318051,
2000-12-28, 02:40:00,VALID,915.931,VALID,0,VALID,98.9792,VALID,-0.0169808,VALID,20.3688,VALID,214,VALID,0.236914,
2000-12-28, 02:41:00,VALID,915.911,VALID,0,VALID,98.9881,VALID,0,VALID,20.3718,VALID,214,VALID,0,
2000-12-28, 02:42:00,VALID,915.904,VALID,0,VALID,98.9881,VALID,0.0169808,VALID,20.3721,VALID,204,VALID,0,
2000-12-28, 02:43:00,VALID,915.902,VALID,0,VALID,98.9868,VALID,0.0169808,VALID,20.3755,VALID,194,VALID,0,
2000-12-28, 02:44:00,VALID,915.886,VALID,0,VALID,98.9919,VALID,0,VALID,20.3656,VALID,197,VALID,0,
2000-12-28, 02:45:00,VALID,915.868,VALID,0,VALID,99.0173,VALID,-0.0169808,VALID,20.3559,VALID,194,VALID,0.276476,
2000-12-28, 02:46:00,VALID,915.864,VALID,0,VALID,99.0122,VALID,0,VALID,20.3651,VALID,195,VALID,0.913462,
2000-12-28, 02:47:00,VALID,915.828,VALID,0,VALID,98.9982,VALID,0,VALID,20.3489,VALID,185,VALID,1.04646,
2000-12-28, 02:48:00,VALID,915.808,VALID,0,VALID,99.0097,VALID,-0.0169808,VALID,20.3465,VALID,180,VALID,0.670847,
2000-12-28, 02:49:00,VALID,915.781,VALID,0,VALID,99.0237,VALID,-0.0169808,VALID,20.3435,VALID,155,VALID,0.670819,
2000-12-28, 02:50:00,VALID,915.76,VALID,0,VALID,99.0287,VALID,-0.0339617,VALID,20.3333,VALID,165,VALID,0.789714,
2000-12-28, 02:51:00,VALID,915.732,VALID,0,VALID,99.0122,VALID,-0.0169808,VALID,20.3201,VALID,173,VALID,0.618666,
2000-12-28, 02:52:00,VALID,915.704,VALID,0,VALID,99.016,VALID,-0.0339617,VALID,20.3169,VALID,183,VALID,0.653166,
2000-12-28, 02:53:00,VALID,915.692,VALID,0,VALID,99.0249,VALID,-0.0169808,VALID,20.3045,VALID,179,VALID,0.59375,
2000-12-28, 02:54:00,VALID,915.679,VALID,0,VALID,99.0504,VALID,-0.0169808,VALID,20.2942,VALID,192,VALID,0.323117,
2000-12-28, 02:55:00,VALID,915.683,VALID,0,VALID,99.0593,VALID,-0.0339617,VALID,20.2913,VALID,192,VALID,0.290963,
2000-12-28, 02:56:00,VALID,915.682,VALID,0,VALID,99.0605,VALID,-0.0679233,VALID,20.2846,VALID,183,VALID,0.490132,
2000-12-28, 02:57:00,VALID,915.676,VALID,0,VALID,99.0605,VALID,0,VALID,20.2816,VALID,176,VALID,0.549079,
2000-12-28, 02:58:00,VALID,915.676,VALID,0,VALID,99.0745,VALID,-0.0339617,VALID,20.2783,VALID,183,VALID,0.459936,
2000-12-28, 02:59:00,VALID,915.676,VALID,0,VALID,99.0834,VALID,0,VALID,20.2851,VALID,202,VALID,0.122243,
2000-12-28, 03:00:00,VALID,915.689,VALID,0,VALID,99.1,VALID,-0.0169808,VALID,20.2945,VALID,216,VALID,0.327919,
2000-12-28, 03:01:00,VALID,915.695,VALID,0,VALID,99.1152,VALID,0,VALID,20.2975,VALID,194,VALID,0.441723,
2000-12-28, 03:02:00,VALID,915.702,VALID,0,VALID,99.1254,VALID,-0.0169808,VALID,20.3007,VALID,200,VALID,0.093099,
2000-12-28, 03:03:00,VALID,915.712,VALID,0,VALID,99.1318,VALID,-0.0169808,VALID,20.3107,VALID,200,VALID,0,
2000-12-28, 03:04:00,VALID,915.721,VALID,0,VALID,99.1419,VALID,-0.0339617,VALID,20.3139,VALID,205,VALID,0,
2000-12-28, 03:05:00,VALID,915.738,VALID,0,VALID,99.1508,VALID,0,VALID,20.3333,VALID,233,VALID,0.351985,
2000-12-28, 03:06:00,VALID,915.755,VALID,0,VALID,99.1546,VALID,0,VALID,20.33,VALID,228,VALID,0.450893,
2000-12-28, 03:07:00,VALID,915.748,VALID,0,VALID,99.161,VALID,-0.0169808,VALID,20.3459,VALID,220,VALID,0.390848,
2000-12-28, 03:08:00,VALID,915.754,VALID,0,VALID,99.1686,VALID,-0.0169808,VALID,20.3397,VALID,217,VALID,0.451069,
2000-12-28, 03:09:00,VALID,915.756,VALID,0,VALID,99.1623,VALID,0,VALID,20.3462,VALID,217,VALID,0.633213,
2000-12-28, 03:10:00,VALID,915.766,VALID,0,VALID,99.1737,VALID,-0.0169808,VALID,20.3432,VALID,199,VALID,0.445117,
2000-12-28, 03:11:00,VALID,915.767,VALID,0,VALID,99.1635,VALID,0,VALID,20.3395,VALID,218,VALID,0.209498,
2000-12-28, 03:12:00,VALID,915.769,VALID,0,VALID,99.1852,VALID,0,VALID,20.3494,VALID,217,VALID,0.598184,
2000-12-28, 03:13:00,VALID,915.776,VALID,0,VALID,99.1801,VALID,0,VALID,20.3397,VALID,221,VALID,0.711338,
2000-12-28, 03:14:00,VALID,915.776,VALID,0,VALID,99.1775,VALID,0,VALID,20.34,VALID,218,VALID,0.76262,
2000-12-28, 03:15:00,VALID,915.783,VALID,0,VALID,99.1991,VALID,-0.0339617,VALID,20.3432,VALID,226,VALID,0.953125,
2000-12-28, 03:16:00,VALID,915.772,VALID,0,VALID,99.203,VALID,0.0169808,VALID,20.3425,VALID,225,VALID,0.84308,
2000-12-28, 03:17:00,VALID,915.781,VALID,0,VALID,99.2004,VALID,0.0169808,VALID,20.3392,VALID,230,VALID,0.594922,
2000-12-28, 03:18:00,VALID,915.776,VALID,0,VALID,99.208,VALID,0,VALID,20.3427,VALID,222,VALID,0.835938,
2000-12-28, 03:19:00,VALID,915.778,VALID,0,VALID,99.2055,VALID,0,VALID,20.3363,VALID,221,VALID,0.810764,
2000-12-28, 03:20:00,VALID,915.779,VALID,0,VALID,99.2068,VALID,-0.0679233,VALID,20.33,VALID,236,VALID,0.677154,
2000-12-28, 03:21:00,VALID,915.78,VALID,0,VALID,99.2093,VALID,-0.101885,VALID,20.3251,VALID,228,VALID,0.726974,
2000-12-28, 03:22:00,VALID,915.782,VALID,0,VALID,99.2233,VALID,-0.101885,VALID,20.3351,VALID,217,VALID,0.386613,
2000-12-28, 03:23:00,VALID,915.79,VALID,0,VALID,99.2195,VALID,-0.101885,VALID,20.3219,VALID,241,VALID,0.410684,
2000-12-28, 03:24:00,VALID,915.796,VALID,0,VALID,99.2169,VALID,-0.101885,VALID,20.3119,VALID,221,VALID,0.218304,
2000-12-28, 03:25:00,VALID,915.787,VALID,0,VALID,99.2297,VALID,-0.0679233,VALID,20.3015,VALID,222,VALID,0.437706,
2000-12-28, 03:26:00,VALID,915.788,VALID,0,VALID,99.2297,VALID,-0.0679233,VALID,20.2982,VALID,222,VALID,0.724451,
2000-12-28, 03:27:00,VALID,915.784,VALID,0,VALID,99.2246,VALID,-0.0849042,VALID,20.302,VALID,206,VALID,0.781059,
2000-12-28, 03:28:00,VALID,915.795,VALID,0,VALID,99.2271,VALID,-0.101885,VALID,20.2993,VALID,205,VALID,0.773438,
2000-12-28, 03:29:00,VALID,915.784,VALID,0,VALID,99.222,VALID,-0.0849042,VALID,20.2928,VALID,203,VALID,0.655428,
2000-12-28, 03:30:00,VALID,915.778,VALID,0,VALID,99.2437,VALID,-0.101885,VALID,20.2925,VALID,179,VALID,0.341488,
2000-12-28, 03:31:00,VALID,915.771,VALID,0,VALID,99.25,VALID,-0.0679233,VALID,20.2993,VALID,157,VALID,0.500977,
2000-12-28, 03:32:00,VALID,915.753,VALID,0,VALID,99.2589,VALID,-0.101885,VALID,20.2891,VALID,148,VALID,0.548277,
2000-12-28, 03:33:00,VALID,915.751,VALID,0,VALID,99.2551,VALID,-0.101885,VALID,20.2891,VALID,129,VALID,0.627232,
2000-12-28, 03:34:00,VALID,915.735,VALID,0,VALID,99.2475,VALID,-0.0849042,VALID,20.2893,VALID,112,VALID,0.819336,
2000-12-28, 03:35:00,VALID,915.736,VALID,0,VALID,99.25,VALID,-0.0339617,VALID,20.2716,VALID,110,VALID,0.807943,
2000-12-28, 03:36:00,VALID,915.734,VALID,0,VALID,99.2411,VALID,0.0169808,VALID,20.2711,VALID,109,VALID,0.816406,